ONEWEB-0025 (45138 NORAD) Tracking and Keplerian Element Data

This shows tracking and keplerian element data for the satellite.

Feedback or suggestion? Click here.




ElementValue
Catalog45138
NameONEWEB-0025
Epoch Orbit3923
Epoch Day298.25001157
Epoch Year2020
RAAN86.2715
Inclination87.9451
Eccentricity0.002344
Argument of Perigee109.1674
Mean Anonmoly79.4154
Mean Motion13.31769699
Decay Rate1.4E-07
L11 45138U 20008H 20298.25001157 .00000014 00000-0 00000+0 0 9997
L22 45138 87.9451 86.2715 0023440 109.1674 79.4154 13.31769699 39238

Live tracking and technical data element details for ONEWEB-0025 (NORAD 45138). ONEWEB-0025 can be tracked NOW for your location showing map with azimuth and elevation plus other details from your city location.

Track the satellite on the map from your city or location and see movement details for azimuth, elevation, latitude, longitude, range, height, and movement on the map or in text.







IsCatalogInMostPopularTable: catalog: 45138, numindb: 51
Update: records affected: 1



GetName: 45138 ONEWEB-0025

Hit Count: updated at: Sat, 24 Oct 2020 23:21:51 GMT